| time (UTC) | temp F | wind direction | speed knots | gust knots | rain 1hr in | rain 24hr in | rain mn in | humidity % | barometer mb |
| 20260506093215 | 74 | 152 | 1.7 | 6.1 | 0.00 | 0.00 | 0.00 | 91 | 1009.2 |
| 20260506092445 | 74 | 211 | 1.7 | 6.1 | 0.00 | 0.00 | 0.00 | 91 | 1009.2 |
| 20260506091942 | 74 | 190 | 1.7 | 5.2 | 0.00 | 0.00 | 0.00 | 90 | 1009.2 |
| 20260506091442 | 74 | 175 | 1.7 | 5.2 | 0.00 | 0.00 | 0.00 | 90 | 1009.1 |
| 20260506090942 | 74 | 180 | 1.7 | 7.0 | 0.00 | 0.00 | 0.00 | 90 | 1008.9 |
| 20260506090442 | 74 | 155 | 1.7 | 7.0 | 0.00 | 0.00 | 0.00 | 90 | 1009.1 |
| 20260506090214 | 74 | 107 | 1.7 | 7.0 | 0.00 | 0.00 | 0.00 | 90 | 1009.0 |
| 20260506085445 | 74 | 164 | 1.7 | 7.0 | 0.00 | 0.00 | 0.00 | 90 | 1008.9 |
| 20260506084442 | 74 | 187 | 1.7 | 7.8 | 0.00 | 0.00 | 0.00 | 89 | 1009.1 |
| 20260506083942 | 74 | 163 | 2.6 | 7.8 | 0.00 | 0.00 | 0.00 | 89 | 1009.2 |
| 20260506083441 | 74 | 193 | 2.6 | 6.1 | 0.00 | 0.00 | 0.00 | 89 | 1009.2 |
| 20260506082939 | 74 | 155 | 3.5 | 8.7 | 0.00 | 0.00 | 0.00 | 89 | 1009.2 |
| 20260506082707 | 74 | 152 | 2.6 | 8.7 | 0.00 | 0.00 | 0.00 | 89 | 1009.2 |
| 20260506081935 | 74 | 138 | 2.6 | 7.8 | 0.00 | 0.00 | 0.00 | 89 | 1009.2 |
| 20260506081435 | 74 | 150 | 2.6 | 7.8 | 0.00 | 0.00 | 0.00 | 89 | 1009.3 |
| 20260506080934 | 74 | 165 | 2.6 | 6.1 | 0.00 | 0.00 | 0.00 | 89 | 1009.6 |
| 20260506080434 | 74 | 162 | 1.7 | 7.8 | 0.00 | 0.00 | 0.00 | 89 | 1009.5 |
| 20260506073410 | 75 | 159 | 0.9 | 4.3 | 0.00 | 0.00 | 0.00 | 89 | 1009.6 |
| 20260506072904 | 75 | 161 | 0.9 | 4.3 | 0.00 | 0.00 | 0.00 | 89 | 1009.7 |
| 20260506072358 | 75 | 161 | 0.9 | 4.3 | 0.00 | 0.00 | 0.00 | 89 | 1009.7 |
| 20260506071853 | 75 | 163 | 0.9 | 4.3 | 0.00 | 0.00 | 0.00 | 89 | 1009.9 |
| 20260506071347 | 75 | 163 | 0.9 | 6.1 | 0.00 | 0.00 | 0.00 | 89 | 1009.8 |
| 20260506070841 | 75 | 165 | 0.9 | 6.1 | 0.00 | 0.00 | 0.00 | 89 | 1009.8 |
| 20260506070335 | 75 | 139 | 0.9 | 4.3 | 0.00 | 0.00 | 0.00 | 89 | 1009.9 |
| 20260506062247 | 75 | 175 | 1.7 | 7.0 | 0.00 | 0.00 | 0.00 | 88 | 1009.8 |
| 20260506061741 | 75 | 159 | 1.7 | 7.0 | 0.00 | 0.00 | 0.00 | 88 | 1009.8 |
| 20260506061235 | 75 | 113 | 2.6 | 8.7 | 0.00 | 0.00 | 0.00 | 88 | 1010.0 |
| 20260506060729 | 75 | 92 | 2.6 | 8.7 | 0.00 | 0.00 | 0.00 | 88 | 1009.9 |
| 20260506060454 | 75 | 160 | 1.7 | 7.0 | 0.00 | 0.00 | 0.00 | 88 | 1009.8 |
| 20260506051210 | 76 | 171 | 1.7 | 9.6 | 0.00 | 0.00 | 0.00 | 87 | 1009.8 |
| 20260506050939 | 76 | 101 | 1.7 | 7.0 | 0.00 | 0.00 | 0.00 | 87 | 1009.8 |
| 20260506050206 | 76 | 154 | 2.6 | 7.8 | 0.00 | 0.00 | 0.00 | 87 | 1009.9 |
| 20260506044703 | 76 | 169 | 1.7 | 7.0 | 0.00 | 0.00 | 0.00 | 86 | 1009.7 |
| 20260506044204 | 77 | 123 | 1.7 | 6.1 | 0.00 | 0.00 | 0.00 | 86 | 1009.7 |
| 20260506043932 | 77 | 113 | 1.7 | 6.1 | 0.00 | 0.00 | 0.00 | 86 | 1009.7 |
| 20260506043202 | 77 | 107 | 1.7 | 5.2 | 0.00 | 0.00 | 0.00 | 86 | 1009.7 |
| 20260506042701 | 77 | 123 | 1.7 | 5.2 | 0.00 | 0.00 | 0.00 | 86 | 1009.6 |
| 20260506042200 | 77 | 123 | 1.7 | 6.1 | 0.00 | 0.00 | 0.00 | 86 | 1009.6 |
| 20260506041655 | 77 | 121 | 1.7 | 7.0 | 0.00 | 0.00 | 0.00 | 85 | 1009.7 |
| 20260506041149 | 77 | 164 | 1.7 | 7.0 | 0.00 | 0.00 | 0.00 | 85 | 1009.6 |
| 20260506040643 | 77 | 136 | 1.7 | 6.1 | 0.00 | 0.00 | 0.00 | 85 | 1009.5 |
| 20260506040137 | 78 | 142 | 1.7 | 7.0 | 0.00 | 0.00 | 0.00 | 85 | 1009.6 |
| 20260506035631 | 78 | 161 | 1.7 | 7.0 | 0.00 | 0.00 | 0.00 | 85 | 1009.3 |
| 20260506035125 | 78 | 150 | 1.7 | 6.1 | 0.00 | 0.00 | 0.00 | 85 | 1009.3 |
| 20260506034619 | 78 | 147 | 1.7 | 7.0 | 0.00 | 0.00 | 0.00 | 85 | 1009.2 |
| 20260506034113 | 78 | 163 | 1.7 | 7.0 | 0.00 | 0.00 | 0.00 | 84 | 1009.1 |
| 20260506033838 | 78 | 140 | 1.7 | 5.2 | 0.00 | 0.00 | 0.00 | 84 | 1009.0 |
| 20260506033101 | 78 | 132 | 1.7 | 5.2 | 0.00 | 0.00 | 0.00 | 84 | 1008.9 |
| 20260506032826 | 78 | 198 | 1.7 | 7.8 | 0.00 | 0.00 | 0.00 | 84 | 1008.9 |
| 20260506032049 | 79 | 152 | 1.7 | 7.8 | 0.00 | 0.00 | 0.00 | 83 | 1008.8 |
| 20260506031543 | 79 | 128 | 1.7 | 6.1 | 0.00 | 0.00 | 0.00 | 83 | 1008.7 |
| 20260506031037 | 79 | 121 | 2.6 | 10.4 | 0.00 | 0.00 | 0.00 | 82 | 1008.6 |
| 20260506030531 | 79 | 97 | 2.6 | 10.4 | 0.00 | 0.00 | 0.00 | 82 | 1008.6 |
| 20260506025751 | 80 | 176 | 0.9 | 4.3 | 0.00 | 0.00 | 0.00 | 81 | 1008.3 |
| 20260506025013 | 80 | 138 | 0.9 | 6.1 | 0.00 | 0.00 | 0.00 | 80 | 1008.3 |
| 20260506024507 | 80 | 138 | 0.9 | 6.1 | 0.00 | 0.00 | 0.00 | 80 | 1008.4 |
| 20260506024000 | 80 | 132 | 0.9 | 6.1 | 0.00 | 0.00 | 0.00 | 79 | 1008.3 |
| 20260506023455 | 80 | 132 | 1.7 | 7.8 | 0.00 | 0.00 | 0.00 | 79 | 1008.0 |
| 20260506022949 | 81 | 117 | 1.7 | 7.8 | 0.00 | 0.00 | 0.00 | 78 | 1008.0 |
| 20260506022442 | 81 | 130 | 1.7 | 6.1 | 0.00 | 0.00 | 0.00 | 78 | 1007.9 |
| 20260506021937 | 81 | 111 | 1.7 | 7.8 | 0.00 | 0.00 | 0.00 | 77 | 1007.9 |
| 20260506021431 | 81 | 136 | 1.7 | 8.7 | 0.00 | 0.00 | 0.00 | 77 | 1007.9 |
| 20260506020419 | 82 | 128 | 1.7 | 7.0 | 0.00 | 0.00 | 0.00 | 77 | 1007.8 |
| 20260506015407 | 82 | 111 | 0.9 | 5.2 | 0.00 | 0.00 | 0.00 | 77 | 1007.8 |
| 20260506014907 | 82 | 109 | 0.9 | 3.5 | 0.00 | 0.00 | 0.00 | 77 | 1007.6 |
| 20260506014406 | 82 | 111 | 0.9 | 3.5 | 0.00 | 0.00 | 0.00 | 76 | 1007.6 |
| 20260506014137 | 82 | 109 | 0.9 | 3.5 | 0.00 | 0.00 | 0.00 | 76 | 1007.4 |
| 20260506013637 | 82 | 111 | 0.0 | 2.6 | 0.00 | 0.00 | 0.00 | 76 | 1007.4 |
| 20260506012903 | 82 | 111 | 0.0 | 2.6 | 0.00 | 0.00 | 0.00 | 76 | 1007.3 |
| 20260506012403 | 82 | 112 | 0.0 | 0.0 | 0.00 | 0.00 | 0.00 | 75 | 1007.2 |
| 20260506011903 | 82 | 113 | 0.0 | 0.0 | 0.00 | 0.00 | 0.00 | 75 | 1007.2 |
| 20260506011401 | 83 | 113 | 0.0 | 0.0 | 0.00 | 0.00 | 0.00 | 75 | 1007.2 |
| 20260506010859 | 83 | 113 | 0.0 | 0.0 | 0.00 | 0.00 | 0.00 | 74 | 1007.2 |
| 20260506010358 | 83 | 113 | 0.0 | 0.0 | 0.00 | 0.00 | 0.00 | 74 | 1007.2 |
| 20260506005857 | 84 | 113 | 0.0 | 0.0 | 0.00 | 0.00 | 0.00 | 73 | 1007.1 |
| 20260506005357 | 84 | 113 | 0.0 | 0.0 | 0.00 | 0.00 | 0.00 | 72 | 1007.1 |
| 20260506004855 | 84 | 113 | 0.0 | 0.0 | 0.00 | 0.00 | 0.00 | 71 | 1007.0 |
| 20260506004353 | 85 | 113 | 0.0 | 0.0 | 0.00 | 0.00 | 0.00 | 71 | 1006.9 |
| 20260506003851 | 85 | 113 | 0.0 | 0.0 | 0.00 | 0.00 | 0.00 | 70 | 1007.1 |
| 20260506003349 | 85 | 113 | 0.0 | 0.0 | 0.00 | 0.00 | 0.00 | 70 | 1007.1 |
| 20260506003122 | 85 | 113 | 0.0 | 0.0 | 0.00 | 0.00 | 0.00 | 69 | 1007.1 |
| 20260506002347 | 86 | 113 | 0.0 | 0.0 | 0.00 | 0.00 | 0.00 | 69 | 1007.1 |
| 20260506001844 | 86 | 113 | 0.0 | 0.0 | 0.00 | 0.00 | 0.00 | 69 | 1007.0 |
| 20260506001345 | 86 | 113 | 0.0 | 0.0 | 0.00 | 0.00 | 0.00 | 69 | 1007.0 |
| 20260506000845 | 86 | 113 | 0.0 | 0.0 | 0.00 | 0.00 | 0.00 | 69 | 1006.9 |
| 20260506000346 | 86 | 113 | 0.0 | 0.0 | 0.00 | 0.00 | 0.00 | 69 | 1006.9 |
| 20260505235843 | 86 | 113 | 0.0 | 1.7 | 0.00 | 0.00 | 0.00 | 68 | 1006.9 |
| 20260505235615 | 86 | 113 | 0.0 | 1.7 | 0.00 | 0.00 | 0.00 | 68 | 1006.9 |
| 20260505234843 | 86 | 113 | 0.0 | 1.7 | 0.00 | 0.00 | 0.00 | 68 | 1006.9 |
| 20260505234343 | 86 | 113 | 0.9 | 3.5 | 0.00 | 0.00 | 0.00 | 68 | 1006.9 |
| 20260505233843 | 86 | 113 | 0.9 | 3.5 | 0.00 | 0.00 | 0.00 | 68 | 1006.9 |
| 20260505233343 | 86 | 108 | 1.7 | 5.2 | 0.00 | 0.00 | 0.00 | 67 | 1006.9 |
| 20260505232843 | 86 | 102 | 0.9 | 5.2 | 0.00 | 0.00 | 0.00 | 68 | 1006.8 |
| 20260505232339 | 86 | 156 | 0.0 | 2.6 | 0.00 | 0.00 | 0.00 | 69 | 1006.9 |
| 20260505231839 | 86 | 156 | 0.9 | 5.2 | 0.00 | 0.00 | 0.00 | 69 | 1006.8 |
| 20260505231610 | 86 | 156 | 0.9 | 5.2 | 0.00 | 0.00 | 0.00 | 68 | 1006.9 |
| 20260505230839 | 86 | 212 | 0.9 | 2.6 | 0.00 | 0.00 | 0.00 | 69 | 1006.8 |
| 20260505230611 | 86 | 217 | 0.9 | 3.5 | 0.00 | 0.00 | 0.00 | 68 | 1006.8 |
| 20260505225839 | 85 | 217 | 1.7 | 3.5 | 0.00 | 0.00 | 0.00 | 69 | 1006.8 |
| 20260505224838 | 85 | 213 | 1.7 | 6.1 | 0.00 | 0.00 | 0.00 | 69 | 1006.8 |
| 20260505224339 | 85 | 217 | 1.7 | 6.1 | 0.00 | 0.00 | 0.00 | 68 | 1006.8 |
| 20260505223837 | 85 | 158 | 0.9 | 4.3 | 0.00 | 0.00 | 0.00 | 69 | 1006.9 |
| 20260505223337 | 85 | 157 | 0.9 | 7.0 | 0.00 | 0.00 | 0.00 | 70 | 1006.9 |
| 20260505222837 | 85 | 157 | 1.7 | 7.0 | 0.00 | 0.00 | 0.00 | 69 | 1006.8 |
| 20260505222334 | 85 | 271 | 1.7 | 6.1 | 0.00 | 0.00 | 0.00 | 70 | 1006.8 |
| 20260505221833 | 84 | 251 | 1.7 | 6.1 | 0.00 | 0.00 | 0.00 | 70 | 1006.8 |
| 20260505221330 | 84 | 234 | 2.6 | 6.1 | 0.00 | 0.00 | 0.00 | 70 | 1006.8 |
| 20260505220833 | 84 | 159 | 2.6 | 6.1 | 0.00 | 0.00 | 0.00 | 71 | 1006.9 |
| 20260505220331 | 84 | 159 | 2.6 | 6.1 | 0.00 | 0.00 | 0.00 | 70 | 1006.9 |
| 20260505215331 | 85 | 170 | 2.6 | 7.0 | 0.00 | 0.00 | 0.00 | 69 | 1007.0 |
| 20260505214830 | 85 | 150 | 2.6 | 7.0 | 0.00 | 0.00 | 0.00 | 69 | 1007.0 |
| 20260505214328 | 85 | 196 | 1.7 | 5.2 | 0.00 | 0.00 | 0.00 | 69 | 1007.1 |
| 20260505213827 | 85 | 153 | 1.7 | 7.8 | 0.00 | 0.00 | 0.00 | 69 | 1007.2 |
| 20260505213327 | 85 | 153 | 1.7 | 7.8 | 0.00 | 0.00 | 0.00 | 69 | 1007.2 |
| 20260505213057 | 86 | 116 | 1.7 | 6.1 | 0.00 | 0.00 | 0.00 | 69 | 1007.3 |
| 20260505212327 | 86 | 194 | 1.7 | 6.1 | 0.00 | 0.00 | 0.00 | 69 | 1007.4 |
| 20260505211827 | 86 | 271 | 1.7 | 6.1 | 0.00 | 0.00 | 0.00 | 68 | 1007.4 |
| 20260505211329 | 86 | 218 | 0.9 | 3.5 | 0.00 | 0.00 | 0.00 | 69 | 1007.4 |
| 20260505211053 | 85 | 218 | 1.7 | 5.2 | 0.00 | 0.00 | 0.00 | 70 | 1007.6 |
| 20260505210317 | 85 | 219 | 1.7 | 7.0 | 0.00 | 0.00 | 0.00 | 69 | 1007.6 |
| 20260505210041 | 85 | 229 | 1.7 | 7.0 | 0.00 | 0.00 | 0.00 | 69 | 1007.7 |
| 20260505205305 | 85 | 151 | 2.6 | 7.8 | 0.00 | 0.00 | 0.00 | 68 | 1007.8 |
| 20260505204759 | 85 | 224 | 1.7 | 7.8 | 0.00 | 0.00 | 0.00 | 68 | 1007.9 |
| 20260505204523 | 85 | 200 | 1.7 | 6.1 | 0.00 | 0.00 | 0.00 | 70 | 1007.9 |
| 20260505203747 | 85 | 202 | 1.7 | 6.1 | 0.00 | 0.00 | 0.00 | 69 | 1008.1 |
| 20260505203241 | 84 | 215 | 1.7 | 7.8 | 0.00 | 0.00 | 0.00 | 71 | 1008.1 |
| 20260505202735 | 83 | 278 | 2.6 | 7.8 | 0.00 | 0.00 | 0.00 | 73 | 1008.2 |
| 20260505202228 | 83 | 158 | 2.6 | 6.1 | 0.00 | 0.00 | 0.00 | 72 | 1008.2 |
| 20260505201954 | 83 | 163 | 2.6 | 6.1 | 0.00 | 0.00 | 0.00 | 72 | 1008.4 |
| 20260505201216 | 83 | 177 | 2.6 | 6.1 | 0.00 | 0.00 | 0.00 | 72 | 1008.4 |
| 20260505200710 | 83 | 163 | 1.7 | 6.1 | 0.00 | 0.00 | 0.00 | 72 | 1008.5 |
| 20260505200205 | 84 | 153 | 1.7 | 6.1 | 0.00 | 0.00 | 0.00 | 71 | 1008.5 |
| 20260505195659 | 83 | 187 | 1.7 | 4.3 | 0.00 | 0.00 | 0.00 | 72 | 1008.5 |
| 20260505195153 | 83 | 180 | 1.7 | 4.3 | 0.00 | 0.00 | 0.00 | 72 | 1008.6 |
| 20260505194647 | 83 | 168 | 1.7 | 4.3 | 0.00 | 0.00 | 0.00 | 72 | 1008.6 |
| 20260505194140 | 84 | 177 | 1.7 | 6.1 | 0.00 | 0.00 | 0.00 | 71 | 1008.7 |
| 20260505193907 | 83 | 205 | 0.9 | 6.1 | 0.00 | 0.00 | 0.00 | 72 | 1008.8 |
| 20260505193359 | 83 | 206 | 1.7 | 7.0 | 0.00 | 0.00 | 0.00 | 73 | 1008.7 |
| 20260505192622 | 82 | 178 | 1.7 | 7.0 | 0.00 | 0.00 | 0.00 | 73 | 1008.8 |
| 20260505192116 | 82 | 301 | 1.7 | 7.0 | 0.00 | 0.00 | 0.00 | 73 | 1008.8 |
| 20260505191611 | 82 | 223 | 2.6 | 7.0 | 0.00 | 0.00 | 0.00 | 73 | 1008.9 |
| 20260505191105 | 82 | 233 | 2.6 | 9.6 | 0.00 | 0.00 | 0.00 | 74 | 1009.0 |
| 20260505190053 | 81 | 202 | 0.9 | 5.2 | 0.00 | 0.00 | 0.00 | 75 | 1009.1 |
| 20260505185817 | 81 | 219 | 0.9 | 7.0 | 0.00 | 0.00 | 0.00 | 74 | 1009.2 |
| 20260505185041 | 81 | 209 | 0.9 | 7.0 | 0.00 | 0.00 | 0.00 | 75 | 1009.5 |
| 20260505184535 | 81 | 244 | 0.9 | 6.1 | 0.00 | 0.00 | 0.00 | 76 | 1009.5 |
| 20260505184029 | 81 | 244 | 0.9 | 6.1 | 0.00 | 0.00 | 0.00 | 76 | 1009.6 |
| 20260505183524 | 80 | 205 | 0.9 | 5.2 | 0.00 | 0.00 | 0.00 | 77 | 1009.7 |
| 20260505183024 | 80 | 259 | 1.7 | 5.2 | 0.00 | 0.00 | 0.00 | 76 | 1009.7 |
| 20260505182522 | 80 | 194 | 1.7 | 5.2 | 0.00 | 0.00 | 0.00 | 77 | 1009.9 |
| 20260505182252 | 80 | 242 | 1.7 | 5.2 | 0.00 | 0.00 | 0.00 | 77 | 1009.9 |
| 20260505181522 | 80 | 223 | 1.7 | 7.0 | 0.00 | 0.00 | 0.00 | 77 | 1010.0 |
| 20260505181022 | 79 | 280 | 1.7 | 7.0 | 0.00 | 0.00 | 0.00 | 79 | 1010.0 |
| 20260505180522 | 79 | 160 | 1.7 | 7.8 | 0.00 | 0.00 | 0.00 | 79 | 1010.0 |
| 20260505180020 | 78 | 307 | 2.6 | 8.7 | 0.00 | 0.00 | 0.00 | 80 | 1010.0 |
| 20260505175750 | 78 | 167 | 1.7 | 8.7 | 0.00 | 0.00 | 0.00 | 80 | 1010.0 |
| 20260505175020 | 78 | 181 | 0.9 | 4.3 | 0.00 | 0.00 | 0.00 | 81 | 1010.0 |
| 20260505174518 | 78 | 231 | 0.9 | 3.5 | 0.00 | 0.00 | 0.00 | 81 | 1010.0 |
| 20260505174018 | 77 | 237 | 0.9 | 3.5 | 0.00 | 0.00 | 0.00 | 81 | 1010.0 |
| 20260505173518 | 77 | 236 | 1.7 | 5.2 | 0.00 | 0.00 | 0.00 | 81 | 1010.0 |
| 20260505173248 | 77 | 241 | 1.7 | 6.1 | 0.00 | 0.00 | 0.00 | 81 | 1010.1 |
| 20260505172514 | 76 | 253 | 1.7 | 6.1 | 0.00 | 0.00 | 0.00 | 83 | 1010.0 |
| 20260505172013 | 76 | 242 | 1.7 | 6.1 | 0.00 | 0.00 | 0.00 | 83 | 1010.1 |
| 20260505171514 | 76 | 242 | 0.9 | 6.1 | 0.00 | 0.00 | 0.00 | 83 | 1010.1 |
| 20260505171014 | 76 | 230 | 0.9 | 6.1 | 0.00 | 0.00 | 0.00 | 85 | 1010.2 |
| 20260505170514 | 75 | 240 | 0.9 | 6.1 | 0.00 | 0.00 | 0.00 | 85 | 1010.2 |
| 20260505170012 | 75 | 292 | 0.9 | 6.1 | 0.00 | 0.00 | 0.00 | 86 | 1010.2 |
| 20260505165511 | 74 | 172 | 1.7 | 6.1 | 0.00 | 0.00 | 0.00 | 87 | 1010.1 |
| 20260505165245 | 74 | 196 | 1.7 | 6.1 | 0.00 | 0.00 | 0.00 | 87 | 1010.2 |
| 20260505164746 | 74 | 194 | 0.9 | 6.1 | 0.00 | 0.00 | 0.00 | 88 | 1010.1 |
| 20260505164243 | 73 | 212 | 0.9 | 5.2 | 0.00 | 0.00 | 0.00 | 89 | 1010.1 |
| 20260505163511 | 73 | 212 | 0.9 | 5.2 | 0.00 | 0.00 | 0.00 | 90 | 1010.1 |
| 20260505163243 | 72 | 173 | 0.9 | 4.3 | 0.00 | 0.00 | 0.00 | 90 | 1010.2 |
| 20260505162511 | 72 | 171 | 1.7 | 4.3 | 0.00 | 0.00 | 0.00 | 91 | 1010.1 |
| 20260505162008 | 72 | 271 | 0.9 | 3.5 | 0.00 | 0.00 | 0.00 | 91 | 1010.3 |
| 20260505161508 | 71 | 277 | 0.9 | 4.3 | 0.00 | 0.00 | 0.00 | 92 | 1010.3 |
| 20260505161007 | 71 | 280 | 1.7 | 4.3 | 0.00 | 0.00 | 0.00 | 92 | 1010.3 |
| 20260505160507 | 71 | 227 | 0.9 | 4.3 | 0.00 | 0.00 | 0.00 | 92 | 1010.3 |
| 20260505152955 | 70 | 269 | 0.9 | 6.1 | 0.00 | 0.00 | 0.00 | 93 | 1010.3 |
| 20260505152449 | 70 | 271 | 0.9 | 6.1 | 0.00 | 0.00 | 0.00 | 93 | 1010.3 |
| 20260505151943 | 70 | 232 | 0.9 | 7.0 | 0.00 | 0.00 | 0.00 | 93 | 1010.3 |
| 20260505151437 | 70 | 259 | 0.9 | 7.0 | 0.00 | 0.00 | 0.00 | 93 | 1010.3 |
| 20260505150931 | 70 | 219 | 0.9 | 5.2 | 0.00 | 0.00 | 0.00 | 93 | 1010.2 |
| 20260505150656 | 70 | 214 | 0.9 | 5.2 | 0.00 | 0.00 | 0.00 | 93 | 1010.1 |
| 20260505140313 | 69 | 160 | 1.7 | 6.1 | 0.00 | 0.00 | 0.00 | 93 | 1010.1 |
| 20260505130213 | 68 | 142 | 1.7 | 7.0 | 0.00 | 0.00 | 0.00 | 92 | 1010.0 |
| 20260505124944 | 68 | 202 | 0.9 | 9.6 | 0.00 | 0.00 | 0.00 | 92 | 1009.9 |
| 20260505124442 | 68 | 242 | 1.7 | 9.6 | 0.00 | 0.00 | 0.00 | 92 | 1009.9 |
| 20260505123711 | 68 | 234 | 1.7 | 7.8 | 0.00 | 0.00 | 0.00 | 92 | 1009.8 |
| 20260505123442 | 68 | 236 | 1.7 | 7.8 | 0.00 | 0.00 | 0.00 | 92 | 1009.7 |
| 20260505122709 | 68 | 146 | 1.7 | 7.8 | 0.00 | 0.00 | 0.00 | 92 | 1009.6 |
| 20260505122209 | 68 | 200 | 1.7 | 7.8 | 0.00 | 0.00 | 0.00 | 92 | 1009.3 |
| 20260505121709 | 68 | 139 | 0.9 | 6.1 | 0.00 | 0.00 | 0.00 | 92 | 1009.3 |
| 20260505121439 | 68 | 224 | 1.7 | 9.6 | 0.00 | 0.00 | 0.00 | 92 | 1009.2 |
| 20260505120941 | 68 | 211 | 1.7 | 9.6 | 0.00 | 0.00 | 0.00 | 91 | 1009.2 |
| 20260505120209 | 68 | 185 | 0.9 | 5.2 | 0.00 | 0.00 | 0.00 | 91 | 1009.1 |
| 20260505115708 | 68 | 184 | 1.7 | 7.8 | 0.00 | 0.00 | 0.00 | 91 | 1009.1 |
| 20260505115207 | 68 | 227 | 1.7 | 7.8 | 0.00 | 0.00 | 0.00 | 91 | 1009.0 |
| 20260505114707 | 68 | 223 | 0.9 | 5.2 | 0.00 | 0.00 | 0.00 | 91 | 1009.0 |
| 20260505114201 | 68 | 243 | 0.9 | 4.3 | 0.00 | 0.00 | 0.00 | 91 | 1009.0 |
| 20260505113655 | 68 | 209 | 1.7 | 6.1 | 0.00 | 0.00 | 0.00 | 91 | 1009.0 |
| 20260505113148 | 68 | 209 | 0.9 | 6.1 | 0.00 | 0.00 | 0.00 | 91 | 1009.0 |
| 20260505112643 | 68 | 196 | 0.9 | 5.2 | 0.00 | 0.00 | 0.00 | 91 | 1008.9 |
| 20260505112137 | 68 | 196 | 1.7 | 5.2 | 0.00 | 0.00 | 0.00 | 91 | 1008.9 |
| 20260505111631 | 68 | 199 | 0.9 | 4.3 | 0.00 | 0.00 | 0.00 | 91 | 1008.9 |
| 20260505111125 | 68 | 206 | 0.9 | 6.1 | 0.00 | 0.00 | 0.00 | 91 | 1009.0 |
| 20260505110619 | 68 | 211 | 0.9 | 6.1 | 0.00 | 0.00 | 0.00 | 91 | 1009.0 |
| 20260505110345 | 68 | 148 | 0.9 | 6.1 | 0.00 | 0.00 | 0.00 | 91 | 1009.0 |
| 20260505102042 | 68 | 200 | 1.7 | 6.1 | 0.00 | 0.00 | 0.00 | 91 | 1009.0 |
| 20260505101543 | 68 | 163 | 1.7 | 6.1 | 0.00 | 0.00 | 0.00 | 91 | 1009.0 |
| 20260505101043 | 68 | 213 | 0.9 | 6.1 | 0.00 | 0.00 | 0.00 | 91 | 1009.0 |
| 20260505100559 | 68 | 192 | 0.9 | 7.0 | 0.00 | 0.00 | 0.00 | 90 | 1009.1 |
| 20260505100043 | 68 | 209 | 1.7 | 7.0 | 0.00 | 0.00 | 0.00 | 91 | 1009.2 |
| 20260505095041 | 68 | 260 | 0.9 | 7.0 | 0.00 | 0.00 | 0.00 | 91 | 1009.1 |
| 20260505094541 | 68 | 222 | 0.9 | 5.2 | 0.00 | 0.00 | 0.00 | 90 | 1009.1 |
| 20260505094041 | 68 | 234 | 1.7 | 7.0 | 0.00 | 0.00 | 0.00 | 90 | 1009.2 |
| 20260505093541 | 69 | 232 | 1.7 | 7.0 | 0.00 | 0.00 | 0.00 | 90 | 1009.2 |